Regional Weather Roundup
Issued by NWS

Home | Current Version | Previous Version | Graphics & Text | Print | Product List | Glossary On
Versions: 1 2 3 4 5 6 7 8 9 10 11 12 13 14 15 16 17 18 19 20 21 22 23 24 25 26 27 28 29 30 31 32 33 34 35 36 37 38 39 40 41 42 43 44 45 46 47 48 49 50
000
ASUS43 KLOT 170612
RWRIL

ILLINOIS REGIONAL WEATHER ROUNDUP
NATIONAL WEATHER SERVICE CHICAGO/ROMEOVILLE IL
1200 AM CST TUE JAN 17 2017

NOTE: "FAIR" INDICATES FEW OR NO CLOUDS BELOW 12,000 FEET WITH NO
SIGNIFICANT WEATHER AND/OR OBSTRUCTIONS TO VISIBILITY.

* THESE STATIONS ARE NOT UNDER NWS QUALITY CONTROL. THEY ALSO MAY NOT
  REPORT WEATHER SUCH AS PRECIPITATION OR FOG.

ILZ001-002-007-009-015-016-024-170700-
NORTHWEST ILLINOIS

CITY           SKY/WX    TMP DP  RH WIND       PRES   REMARKS
MOLINE         CLOUDY    37  35  92 CALM      29.80F FOG
6HR MIN TEMP:  36; 6HR MAX TEMP:  37; 6HR PCP:  0.05;

STERLING*      MIX PCPN  37  37 100 CALM      29.80F FOG
SAVANNA*       CLOUDY    36  36  99 N5        29.82F WCI  32
$$

ILZ003-004-008-010-011-017-018-170700-
NORTH CENTRAL ILLINOIS

CITY           SKY/WX    TMP DP  RH WIND       PRES   REMARKS
ROCKFORD       CLOUDY    37  36  96 NE8       29.81F FOG     WCI  31
6HR MIN TEMP:  36; 6HR MAX TEMP:  37; 6HR PCP:  0.37;

FREEPORT*      RAIN      34  34 100 N3        29.83F VSB 1/2
ROCHELLE*      FOG       36  36 100 NE9       29.78F VSB 3/4 WCI  29
DE KALB*       FOG       37  36  98 E8        29.79F VSB 3/4 WCI  30
$$

ILZ005-006-012>014-019>023-170700-
NORTHEAST ILLINOIS

CITY           SKY/WX    TMP DP  RH WIND       PRES   REMARKS
CHICAGO-OHARE  DRZL/FOG  37  37 100 NE7       29.82F VSB 3/4 WCI  32
6HR MIN TEMP:  36; 6HR MAX TEMP:  37; 6HR PCP:  0.20;

CHICAGO-MIDWAY DRZL/FOG  37  36  96 N6        29.82F VSB 3/4 WCI  32
6HR MIN TEMP:  36; 6HR MAX TEMP:  39; 6HR PCP:  0.14;

AURORA         CLOUDY    38  37  97 E7        29.79F FOG     WCI  33
6HR MIN TEMP:  37; 6HR MAX TEMP:  38; 6HR PCP:  0.25;

LANSING*       DRIZZLE   42  42 100 E6        29.82F
JOLIET*        FOG       43  43 100 E3        29.80F VSB 1/4
WAUKEGAN       FOG       37  36  96 E9        29.84F VSB 1/4 WCI  30
6HR MIN TEMP:  36; 6HR MAX TEMP:  37; 6HR PCP:  0.26;

DUPAGE AIRPORT CLOUDY    37  35  92 NE8       29.79F FOG     WCI  31
6HR MIN TEMP:  36; 6HR MAX TEMP:  37; 6HR PCP:  0.15;

KANKAKEE*      RAIN      47  46  98 SE12      29.80F VSB 1/2
WHEELING       CLOUDY    37  37 100 E5        29.84F FOG     WCI  33
6HR MIN TEMP:  36; 6HR MAX TEMP:  37; 6HR PCP:  0.18;

MORRIS*        FOG       38  37  98 NE6       29.77F VSB 1/4 WCI  33
ROMEOVILLE*    FOG       38  38 100 NE7       29.80F VSB 1/4 WCI  33
NORTHERLY ISL    N/A     37  36  96 N2          N/A
$$

LMZ740>746-170700-
SOUTHERN LAKE MICHIGAN

STATION/POSITION SKY/WX   TEMP    WIND        PRES    VSBY  WAVE
                          AIR SEA DIR/SP/G                  HT/PER
                          (F)     (DEG/KT/KT) (MB)    (MI)  (FT/S)
HARRISON CRIB              38      70/  4/  4   N/A
BURNHAM HARBOR             37      10/  2/  3   N/A
CALUMET HARBOR                    170/  4/  6   N/A
BURNS HARBOR               46     140/ 13/ 20 1011.2F
MICHIGAN CITY              42     120/ 12/ 14   N/A
$$

ILZ025>027-034>036-040-047-049-050-058-095>099-170700-
WEST-CENTRAL ILLINOIS

CITY           SKY/WX    TMP DP  RH WIND       PRES   REMARKS
QUINCY         CLOUDY    45  45 100 W10       29.85R
GALESBURG*     LGT RAIN  38  38 100 CALM      29.79F
MACOMB*        CLOUDY    38  38 100 W6        29.83S FOG     WCI  33
JACKSONVILLE*  CLOUDY    51  50  95 W14       29.82R
PITTSFIELD*    CLOUDY    48  46  92 W12G23    29.86R
$$

ILZ028>032-037-038-041>044-048-051>054-059>061-170700-
CENTRAL ILLINOIS

CITY           SKY/WX    TMP DP  RH WIND       PRES   REMARKS
PONTIAC        FOG       45  45 100 SE13      29.76F VSB 1/4
BLOOMINGTON    FOG       50  50 100 S15       29.77F VSB 1
DECATUR        CLOUDY    55  55 100 S17       29.80F
PEORIA         RAIN      47  47 100 SW9       29.79R FOG
6HR MIN TEMP:  41; 6HR MAX TEMP:  49; 6HR PCP:  0.37;

LACON*         RAIN      37  37 100 N3        29.77S
LINCOLN*       CLOUDY    52  52 100 S10       29.78F FOG
SPRINGFIELD    RAIN      55  54  96 S10       29.80F FOG
6HR MIN TEMP:  51; 6HR MAX TEMP:  55; 6HR PCP:  0.03;

TAYLORVILLE    CLOUDY    55  55  99 S13       29.81F
6HR MIN TEMP:  50; 6HR MAX TEMP:  55; 6HR PCP:  0.11;

$$

ILZ033-039-045-046-055>057-062-063-170700-
EAST-CENTRAL ILLINOIS

CITY           SKY/WX    TMP DP  RH WIND       PRES   REMARKS
CHAMPAIGN      CLOUDY    54  52  93 S20       29.81F
RANTOUL*       CLOUDY    53  52  99 S13       29.80F FOG
MATTOON        CLOUDY    56  55  97 S13       29.83F
PARIS*         CLOUDY    55  54  99 S14       29.86F
$$

ILZ079-100>102-170700-
SOUTHWEST ILLINOIS

CITY           SKY/WX    TMP DP  RH WIND       PRES   REMARKS
ALTON          RAIN      53  53  99 W21G32    29.86R
BELLEVILLE     CLOUDY    57  57 100 S10       29.83F
CAHOKIA*       CLOUDY    54  52  93 SW5       29.85R
SPARTA*        PTCLDY    59  58  95 S12G17    29.87F
$$

ILZ064>066-069>071-074>076-080>082-084>086-088>090-092>094-170700-
SOUTH-CENTRAL ILLINOIS

CITY           SKY/WX    TMP DP  RH WIND       PRES   REMARKS
CARBONDALE     CLOUDY    61  59  93 S14       29.88F
6HR MIN TEMP:  58; 6HR MAX TEMP:  63; 6HR PCP:  0.02;

CAIRO*         CLOUDY    60  60  99 S7        29.91F
EFFINGHAM*     CLOUDY    57  57 100 SE8       29.86F
MARION         CLOUDY    61  61 100 S16       29.90F
MT. VERNON     CLOUDY    59  58  96 S12       29.87S
CENTRALIA*     CLOUDY    60  59  96 S15G22    29.85S
SALEM*         CLOUDY    60  58  91 S14       29.85F
METROPOLIS*    DRIZZLE   59  59  98 CALM      29.92F
$$

ILZ067-068-072-073-078-083-087-091-170700-
SOUTHEAST ILLINOIS

CITY           SKY/WX    TMP DP  RH WIND       PRES   REMARKS
LAWRENCEVILLE  CLOUDY    58  57  97 S17       29.89F
FLORA*         CLOUDY    58  57  94 S12       29.87F
FAIRFIELD*     CLOUDY    58  58  97 S10       29.87F
HARRISBURG*    CLOUDY    60  58  94 S13       29.90F
ROBINSON*      CLOUDY    56  55  95 S13       29.89F
CARMI*         CLOUDY    56  56 100 S9        29.90F
$$

ABBREVIATIONS USED IN REMARKS
   TC - TEMPERATURE IN CELSIUS
  WCI - WIND CHILL INDEX
   HX - HEAT INDEX
  VSB - VISIBILITY
$$




USA.gov is the U.S. government's official web portal to all federal, state and local government web resources and services.